カタログに戻る

PICOSAT 6

運用中科学LEO
NORAD 26094·PAYLOAD·🇺🇸 United States

打ち上げ Jan 27, 2000 から Vandenberg Space Force Base

Loading…

次のパス (今後24時間)

TLE

最新Source: Space-Track

元期: Sep 14, 2026, 07:31 UTC

1 26094U 00004M   26257.31371248  .00000374  00000-0  11828-3 0  9993
2 26094 100.2130 292.6799 0030942 289.7812  70.0039 14.47387508398128

AllMySatでPICOSAT 6をリアルタイム追跡

Download on the App Store